Time,TemperatureF,DewpointF,PressureIn,WindDirection,WindDirectionDegrees,WindSpeedMPH,WindSpeedGustMPH,Humidity,HourlyPrecipIn,Conditions,Clouds,dailyrainin,SoftwareType,DateUTC
2013-09-14 00:00:00,48.0,44.0,29.64,South,180,0.0,0.0,86,0.00,,,-99.99,Weather View 32 v60,2013-09-14 05:00:00,
2013-09-14 00:29:00,47.0,43.3,29.64,ESE,112,0.0,0.0,87,0.00,,,-99.99,Weather View 32 v60,2013-09-14 05:29:00,
2013-09-14 00:30:00,45.0,42.5,30.19,NNE,22,0.0,0.0,91,0.00,,,-99.99,Weather View 32 v60,2013-09-14 05:30:00,
2013-09-14 00:59:00,47.0,43.6,29.64,SSE,158,0.0,0.0,88,0.00,,,-99.99,Weather View 32 v60,2013-09-14 05:59:00,
2013-09-14 01:00:00,47.0,43.6,29.64,SSE,158,0.0,0.0,88,0.00,,,-99.99,Weather View 32 v60,2013-09-14 06:00:00,
2013-09-14 01:29:00,47.0,43.9,29.64,NW,315,0.0,1.0,89,0.00,,,-99.99,Weather View 32 v60,2013-09-14 06:29:00,
2013-09-14 01:30:00,43.0,40.8,30.20,NNE,22,0.0,0.0,92,0.00,,,-99.99,Weather View 32 v60,2013-09-14 06:30:00,
2013-09-14 01:59:00,46.0,42.9,29.64,East,90,0.0,1.0,89,0.00,,,-99.99,Weather View 32 v60,2013-09-14 06:59:00,
2013-09-14 02:00:00,46.0,42.9,29.64,East,90,0.0,1.0,89,0.00,,,-99.99,Weather View 32 v60,2013-09-14 07:00:00,
2013-09-14 02:29:00,45.0,42.2,29.64,East,90,0.0,0.0,90,0.00,,,-99.99,Weather View 32 v60,2013-09-14 07:29:00,
2013-09-14 02:30:00,42.0,40.1,30.20,NNE,22,0.0,0.0,93,0.00,,,-99.99,Weather View 32 v60,2013-09-14 07:30:00,
2013-09-14 02:59:00,45.0,42.5,29.63,East,90,0.0,0.0,91,0.00,,,-99.99,Weather View 32 v60,2013-09-14 07:59:00,
2013-09-14 03:00:00,45.0,42.5,29.63,East,90,0.0,0.0,91,0.00,,,-99.99,Weather View 32 v60,2013-09-14 08:00:00,
2013-09-14 03:29:00,44.0,41.8,29.63,East,90,0.0,0.0,92,0.00,,,-99.99,Weather View 32 v60,2013-09-14 08:29:00,
2013-09-14 03:30:00,41.0,39.7,30.21,SW,225,0.0,0.0,95,0.00,,,-99.99,Weather View 32 v60,2013-09-14 08:30:00,
2013-09-14 03:59:00,43.0,41.1,29.64,East,90,0.0,0.0,93,0.00,,,-99.99,Weather View 32 v60,2013-09-14 08:59:00,
2013-09-14 04:00:00,43.0,41.1,29.64,East,90,0.0,0.0,93,0.00,,,-99.99,Weather View 32 v60,2013-09-14 09:00:00,
2013-09-14 04:29:00,43.0,41.4,29.64,NE,45,0.0,0.0,94,0.00,,,-99.99,Weather View 32 v60,2013-09-14 09:29:00,
2013-09-14 04:30:00,41.0,39.7,30.21,NNE,22,0.0,0.0,95,0.00,,,-99.99,Weather View 32 v60,2013-09-14 09:30:00,
2013-09-14 04:59:00,43.0,41.4,29.63,ESE,112,0.0,0.0,94,0.00,,,-99.99,Weather View 32 v60,2013-09-14 09:59:00,
2013-09-14 05:00:00,43.0,41.4,29.63,ESE,112,0.0,0.0,94,0.00,,,-99.99,Weather View 32 v60,2013-09-14 10:00:00,
2013-09-14 05:29:00,42.0,40.7,29.64,NW,315,0.0,0.0,95,0.00,,,-99.99,Weather View 32 v60,2013-09-14 10:29:00,
2013-09-14 05:30:00,41.0,40.2,30.23,ESE,112,0.0,0.0,97,0.00,,,-99.99,Weather View 32 v60,2013-09-14 10:30:00,
2013-09-14 05:59:00,42.0,40.9,29.64,East,90,0.0,0.0,96,0.00,,,-99.99,Weather View 32 v60,2013-09-14 10:59:00,
2013-09-14 06:00:00,42.0,40.9,29.64,East,90,0.0,0.0,96,0.00,,,-99.99,Weather View 32 v60,2013-09-14 11:00:00,
2013-09-14 06:29:00,42.0,40.9,29.65,ESE,112,0.0,0.0,96,0.00,,,-99.99,Weather View 32 v60,2013-09-14 11:29:00,
2013-09-14 06:30:00,40.0,39.5,30.23,North,0,0.0,0.0,98,0.00,,,-99.99,Weather View 32 v60,2013-09-14 11:30:00,
2013-09-14 06:59:00,42.0,41.2,29.64,East,90,0.0,0.0,97,0.00,,,-99.99,Weather View 32 v60,2013-09-14 11:59:00,
2013-09-14 07:00:00,42.0,41.2,29.64,East,90,0.0,0.0,97,0.00,,,-99.99,Weather View 32 v60,2013-09-14 12:00:00,
2013-09-14 07:29:00,43.0,42.2,29.64,ESE,112,0.0,1.0,97,0.00,,,-99.99,Weather View 32 v60,2013-09-14 12:29:00,
2013-09-14 07:30:00,43.0,43.0,30.23,WNW,292,0.0,0.0,100,0.00,,,-99.99,Weather View 32 v60,2013-09-14 12:30:00,
2013-09-14 07:59:00,47.0,46.5,29.65,East,90,0.0,1.0,98,0.00,,,-99.99,Weather View 32 v60,2013-09-14 12:59:00,
2013-09-14 08:00:00,47.0,46.5,29.65,East,90,0.0,1.0,98,0.00,,,-99.99,Weather View 32 v60,2013-09-14 13:00:00,
2013-09-14 08:29:00,51.0,49.9,29.64,SSW,202,0.0,2.0,96,0.00,,,-99.99,Weather View 32 v60,2013-09-14 13:29:00,
2013-09-14 08:30:00,50.0,49.7,30.23,NNE,22,0.0,0.0,99,0.00,,,-99.99,Weather View 32 v60,2013-09-14 13:30:00,
2013-09-14 08:59:00,55.0,50.6,29.64,SW,225,3.0,7.0,85,0.00,,,-99.99,Weather View 32 v60,2013-09-14 13:59:00,
2013-09-14 09:00:00,55.0,50.6,29.64,SW,225,3.0,7.0,85,0.00,,,-99.99,Weather View 32 v60,2013-09-14 14:00:00,
2013-09-14 09:29:00,58.0,49.0,29.65,SW,225,8.0,14.0,72,0.00,,,-99.99,Weather View 32 v60,2013-09-14 14:29:00,
2013-09-14 09:30:00,58.0,49.7,30.23,NW,315,0.0,0.0,74,0.00,,,-99.99,Weather View 32 v60,2013-09-14 14:30:00,
2013-09-14 09:59:00,62.0,48.8,29.65,SW,225,7.0,14.0,62,0.00,,,-99.99,Weather View 32 v60,2013-09-14 14:59:00,
2013-09-14 10:00:00,62.0,48.8,29.65,SW,225,7.0,14.0,62,0.00,,,-99.99,Weather View 32 v60,2013-09-14 15:00:00,
2013-09-14 10:29:00,64.0,46.5,29.64,WNW,292,3.0,17.0,53,0.00,,,-99.99,Weather View 32 v60,2013-09-14 15:29:00,
2013-09-14 10:30:00,62.0,48.8,30.21,NNW,338,0.0,0.0,62,0.00,,,-99.99,Weather View 32 v60,2013-09-14 15:30:00,
2013-09-14 10:59:00,65.0,44.2,29.63,WSW,248,5.0,17.0,47,0.00,,,-99.99,Weather View 32 v60,2013-09-14 15:59:00,
2013-09-14 11:00:00,65.0,44.2,29.63,WSW,248,5.0,17.0,47,0.00,,,-99.99,Weather View 32 v60,2013-09-14 16:00:00,
2013-09-14 11:29:00,67.0,44.3,29.62,WNW,292,6.0,14.0,44,0.00,,,-99.99,Weather View 32 v60,2013-09-14 16:29:00,
2013-09-14 11:30:00,66.0,47.8,30.18,West,270,0.0,0.0,52,0.00,,,-99.99,Weather View 32 v60,2013-09-14 16:30:00,
2013-09-14 11:59:00,67.0,43.7,29.61,SW,225,6.0,14.0,43,0.00,,,-99.99,Weather View 32 v60,2013-09-14 16:59:00,
2013-09-14 12:00:00,67.0,43.7,29.61,SW,225,6.0,14.0,43,0.00,,,-99.99,Weather View 32 v60,2013-09-14 17:00:00,
2013-09-14 12:29:00,69.0,44.3,29.60,SW,225,8.0,14.0,41,0.00,,,-99.99,Weather View 32 v60,2013-09-14 17:29:00,
2013-09-14 12:30:00,67.0,46.1,30.15,WSW,248,0.0,0.0,47,0.00,,,-99.99,Weather View 32 v60,2013-09-14 17:30:00,
2013-09-14 12:59:00,70.0,44.5,29.58,West,270,5.0,13.0,40,0.00,,,-99.99,Weather View 32 v60,2013-09-14 17:59:00,
2013-09-14 13:00:00,70.0,44.5,29.58,West,270,5.0,13.0,40,0.00,,,-99.99,Weather View 32 v60,2013-09-14 18:00:00,
2013-09-14 13:29:00,71.0,45.4,29.57,SW,225,7.0,13.0,40,0.00,,,-99.99,Weather View 32 v60,2013-09-14 18:29:00,
2013-09-14 13:30:00,69.0,48.4,30.11,West,270,0.0,0.0,48,0.00,,,-99.99,Weather View 32 v60,2013-09-14 18:30:00,
2013-09-14 13:59:00,72.0,45.6,29.55,SSW,202,8.0,13.0,39,0.00,,,-99.99,Weather View 32 v60,2013-09-14 18:59:00,
2013-09-14 14:00:00,72.0,45.6,29.55,SSW,202,8.0,13.0,39,0.00,,,-99.99,Weather View 32 v60,2013-09-14 19:00:00,
2013-09-14 14:29:00,71.0,45.4,29.54,SW,225,8.0,16.0,40,0.00,,,-99.99,Weather View 32 v60,2013-09-14 19:29:00,
2013-09-14 14:30:00,70.0,49.4,30.10,SSW,202,0.0,0.0,48,0.00,,,-99.99,Weather View 32 v60,2013-09-14 19:30:00,
2013-09-14 14:59:00,72.0,44.9,29.54,SW,225,8.0,16.0,38,0.00,,,-99.99,Weather View 32 v60,2013-09-14 19:59:00,
2013-09-14 15:00:00,72.0,44.9,29.54,SW,225,8.0,16.0,38,0.00,,,-99.99,Weather View 32 v60,2013-09-14 20:00:00,
2013-09-14 15:29:00,73.0,45.1,29.54,WSW,248,11.0,15.0,37,0.00,,,-99.99,Weather View 32 v60,2013-09-14 20:29:00,
2013-09-14 15:30:00,71.0,50.3,30.07,NW,315,0.0,0.0,48,0.00,,,-99.99,Weather View 32 v60,2013-09-14 20:30:00,
2013-09-14 15:59:00,73.0,46.5,29.52,SSW,202,7.0,14.0,39,0.00,,,-99.99,Weather View 32 v60,2013-09-14 20:59:00,
2013-09-14 16:00:00,73.0,46.5,29.52,SSW,202,7.0,14.0,39,0.00,,,-99.99,Weather View 32 v60,2013-09-14 21:00:00,
2013-09-14 16:29:00,73.0,45.8,29.52,South,180,5.0,14.0,38,0.00,,,-99.99,Weather View 32 v60,2013-09-14 21:29:00,
2013-09-14 16:30:00,71.0,49.7,30.06,NW,315,0.0,0.0,47,0.00,,,-99.99,Weather View 32 v60,2013-09-14 21:30:00,
2013-09-14 16:59:00,72.0,45.6,29.52,SW,225,10.0,15.0,39,0.00,,,-99.99,Weather View 32 v60,2013-09-14 21:59:00,
2013-09-14 17:00:00,72.0,45.6,29.52,SW,225,10.0,15.0,39,0.00,,,-99.99,Weather View 32 v60,2013-09-14 22:00:00,
2013-09-14 17:29:00,72.0,45.6,29.51,SW,225,7.0,16.0,39,0.00,,,-99.99,Weather View 32 v60,2013-09-14 22:29:00,
2013-09-14 17:30:00,69.0,49.5,30.05,NW,315,0.0,0.0,50,0.00,,,-99.99,Weather View 32 v60,2013-09-14 22:30:00,
2013-09-14 17:59:00,71.0,45.4,29.50,SW,225,6.0,16.0,40,0.00,,,-99.99,Weather View 32 v60,2013-09-14 22:59:00,
2013-09-14 18:00:00,68.0,49.7,30.04,SW,225,0.0,0.0,52,0.00,,,-99.99,Weather View 32 v60,2013-09-14 23:00:00,
2013-09-14 18:29:00,70.0,45.8,29.50,SSW,202,3.0,13.0,42,0.00,,,-99.99,Weather View 32 v60,2013-09-14 23:29:00,
2013-09-14 18:30:00,67.0,50.3,30.03,SSW,202,0.0,0.0,55,0.00,,,-99.99,Weather View 32 v60,2013-09-14 23:30:00,
2013-09-14 18:59:00,69.0,46.7,29.50,SSW,202,4.0,9.0,45,0.00,,,-99.99,Weather View 32 v60,2013-09-14 23:59:00,
2013-09-14 19:00:00,66.0,50.3,30.04,West,270,0.0,0.0,57,0.00,,,-99.99,Weather View 32 v60,2013-09-15 00:00:00,
2013-09-14 19:29:00,68.0,47.0,29.51,WSW,248,2.0,8.0,47,0.00,,,-99.99,Weather View 32 v60,2013-09-15 00:29:00,
2013-09-14 19:30:00,64.0,49.3,30.04,NW,315,0.0,0.0,59,0.00,,,-99.99,Weather View 32 v60,2013-09-15 00:30:00,
2013-09-14 19:59:00,66.0,47.3,29.50,East,90,0.0,5.0,51,0.00,,,-99.99,Weather View 32 v60,2013-09-15 00:59:00,
2013-09-14 20:00:00,62.0,49.7,30.04,West,270,0.0,0.0,64,0.00,,,-99.99,Weather View 32 v60,2013-09-15 01:00:00,
2013-09-14 20:29:00,66.0,47.8,29.50,SSE,158,3.0,5.0,52,0.00,,,-99.99,Weather View 32 v60,2013-09-15 01:29:00,
2013-09-14 20:30:00,62.0,50.9,30.03,West,270,0.0,0.0,67,0.00,,,-99.99,Weather View 32 v60,2013-09-15 01:30:00,
2013-09-14 20:59:00,65.0,46.9,29.49,ESE,112,0.0,5.0,52,0.00,,,-99.99,Weather View 32 v60,2013-09-15 01:59:00,
2013-09-14 21:00:00,62.0,50.5,30.03,West,270,0.0,0.0,66,0.00,,,-99.99,Weather View 32 v60,2013-09-15 02:00:00,
2013-09-14 21:29:00,66.0,47.8,29.49,SSE,158,2.0,5.0,52,0.00,,,-99.99,Weather View 32 v60,2013-09-15 02:29:00,
2013-09-14 21:30:00,62.0,50.1,30.02,East,90,0.0,0.0,65,0.00,,,-99.99,Weather View 32 v60,2013-09-15 02:30:00,
2013-09-14 21:59:00,65.0,48.4,29.49,SSW,202,1.0,5.0,55,0.00,,,-99.99,Weather View 32 v60,2013-09-15 02:59:00,
2013-09-14 22:00:00,62.0,50.1,30.03,ENE,68,0.0,0.0,65,0.00,,,-99.99,Weather View 32 v60,2013-09-15 03:00:00,
2013-09-14 22:29:00,64.0,48.9,29.50,East,90,0.0,5.0,58,0.00,,,-99.99,Weather View 32 v60,2013-09-15 03:29:00,
2013-09-14 22:30:00,61.0,49.9,30.04,East,90,0.0,0.0,67,0.00,,,-99.99,Weather View 32 v60,2013-09-15 03:30:00,
2013-09-14 22:59:00,63.0,49.3,29.49,SSE,158,0.0,4.0,61,0.00,,,-99.99,Weather View 32 v60,2013-09-15 03:59:00,
2013-09-14 23:00:00,61.0,51.9,30.03,SW,225,0.0,0.0,72,0.00,,,-99.99,Weather View 32 v60,2013-09-15 04:00:00,
2013-09-14 23:29:00,64.0,48.4,29.48,East,90,0.0,5.0,57,0.00,,,-99.99,Weather View 32 v60,2013-09-15 04:29:00,
2013-09-14 23:30:00,60.0,50.5,30.03,SW,225,0.0,0.0,71,0.00,,,-99.99,Weather View 32 v60,2013-09-15 04:30:00,
2013-09-14 23:59:00,63.0,50.2,29.49,East,90,0.0,5.0,63,0.00,,,-99.99,Weather View 32 v60,2013-09-15 04:59:00,